DW6440 Weather Reports


Display with metric or nautical units.
time (UTC)temp
F
wind
direction
speed
MPH
gust
MPH
rain 1hr
in
rain 24hr
in
rain mn
in
humidity
%
barometer
mb
20260510095747 49 78 0.0 1.0 0.00 0.10 0.00 93 1011.4
20260510095028 49 78 0.0 2.0 0.00 0.10 0.00 94 1011.4
20260510094524 49 78 0.0 2.0 0.00 0.10 0.00 93 1011.3
20260510094026 50 78 0.0 1.0 0.00 0.10 0.00 94 1011.0
20260510093525 50 78 0.0 1.0 0.00 0.10 0.00 94 1011.0
20260510093026 50 78 0.0 1.0 0.00 0.10 0.00 93 1011.0
20260510092522 50 78 0.0 1.0 0.00 0.10 0.00 93 1011.0
20260510092023 50 78 0.0 0.0 0.00 0.10 0.00 94 1011.1
20260510091759 50 78 0.0 1.0 0.00 0.10 0.00 94 1011.1
20260510091024 50 78 0.0 1.0 0.00 0.10 0.00 93 1011.0
20260510090520 50 78 0.0 0.0 0.00 0.10 0.00 94 1010.9
20260510090019 50 78 0.0 0.0 0.00 0.10 0.00 94 1010.9
20260510085520 50 78 0.0 1.0 0.00 0.10 0.00 94 1011.1
20260510085021 50 78 0.0 2.0 0.00 0.10 0.00 94 1010.9
20260510084520 50 78 1.0 2.0 0.00 0.10 0.00 94 1011.0
20260510084020 50 78 1.0 2.0 0.00 0.10 0.00 94 1011.1
20260510083744 50 78 1.0 2.0 0.00 0.10 0.00 93 1011.1
20260510083514 50 78 1.0 3.0 0.00 0.10 0.00 94 1011.1
20260510082520 50 78 2.0 4.0 0.00 0.10 0.00 93 1011.2
20260510082328 51 5 2.0 4.0 0.00 0.10 0.00 94 1011.4
20260510082246 50 5 3.0 9.0 0.00 0.10 0.00 94 1010.9
20260510082156 50 78 1.0 4.0 0.00 0.10 0.00 94 1011.1
20260510082025 50 80 2.0 4.0 0.00 0.10 0.00 94 1011.1
20260510081210 51 5 2.0 4.0 0.00 0.10 0.00 94 1011.0
20260510080456 51 5 1.0 3.0 0.00 0.10 0.00 94 1011.0
20260510075637 50 5 2.0 9.0 0.00 0.10 0.00 94 1011.6
20260510074518 48 265 2.0 9.0 0.00 0.10 0.00 94 1010.8
20260510074018 46 315 1.0 8.0 0.00 0.10 0.00 93 1011.4
20260510073521 46 92 0.0 0.0 0.00 0.10 0.00 93 1010.5
20260510073022 46 92 0.0 0.0 0.00 0.10 0.00 93 1010.4
20260510072519 46 92 0.0 0.0 0.00 0.10 0.00 93 1010.6
20260510072025 45 92 0.0 0.0 0.00 0.10 0.00 93 1010.5
20260510071520 45 92 0.0 0.0 0.00 0.10 0.00 93 1010.5
20260510071016 46 92 0.0 0.0 0.00 0.10 0.00 93 1010.5
20260510070514 46 92 0.0 0.0 0.00 0.10 0.00 93 1010.5
20260510070016 46 92 0.0 0.0 0.00 0.10 0.00 93 1010.5
20260510065512 46 92 0.0 0.0 0.00 0.10 0.00 93 1010.5
20260510065012 46 92 0.0 0.0 0.00 0.10 0.00 93 1010.5
20260510064511 46 92 0.0 0.0 0.00 0.10 0.00 93 1010.2
20260510064238 46 92 0.0 1.0 0.00 0.10 0.00 93 1010.2
20260510063731 46 92 0.0 1.0 0.00 0.10 0.00 93 1010.2
20260510063006 46 92 0.0 1.0 0.00 0.10 0.00 93 1010.1
20260510062506 46 92 0.0 1.0 0.00 0.10 0.00 93 1010.2
20260510062233 47 92 0.0 1.0 0.00 0.10 0.00 93 1010.1
20260510061503 47 92 0.0 0.0 0.00 0.10 0.00 93 1010.0
20260510061008 47 92 0.0 0.0 0.00 0.10 0.00 93 1009.9
20260510060450 47 92 0.0 0.0 0.00 0.10 0.00 93 1010.0
20260510055943 47 92 0.0 0.0 0.00 0.10 0.00 93 1010.0
20260510055438 47 92 0.0 0.0 0.00 0.10 0.00 93 1010.1
20260510054932 47 92 0.0 0.0 0.00 0.10 0.00 93 1010.2
20260510054422 47 92 0.0 0.0 0.00 0.10 0.00 93 1010.2
20260510054138 47 92 0.0 1.0 0.00 0.10 0.00 93 1010.2
20260510053415 47 92 0.0 1.0 0.00 0.10 0.00 93 1010.3
20260510053130 48 92 0.0 1.0 0.00 0.10 0.00 93 1010.3
20260510052403 47 92 0.0 0.0 0.00 0.10 0.00 93 1010.3
20260510051858 47 92 0.0 0.0 0.00 0.10 0.00 93 1010.4
20260510051350 48 92 0.0 0.0 0.00 0.10 0.00 93 1010.4
20260510050847 48 92 0.0 0.0 0.00 0.10 0.00 93 1010.4
20260510050605 48 92 0.0 0.0 0.00 0.10 0.00 92 1010.5
20260510050058 48 92 0.0 0.0 0.00 0.10 0.00 93 1010.4
20260510045327 48 92 0.0 0.0 0.00 0.10 0.00 93 1010.4
20260510045048 48 92 0.0 0.0 0.00 0.10 0.00 92 1010.5
20260510044314 48 92 0.0 0.0 0.00 0.10 0.00 92 1010.5
20260510043808 49 92 0.0 0.0 0.00 0.10 0.00 93 1010.5
20260510043302 49 92 0.0 0.0 0.00 0.10 0.00 92 1010.5
20260510042757 49 92 0.0 0.0 0.00 0.10 0.00 92 1010.6
20260510042250 49 92 0.0 0.0 0.00 0.10 0.00 92 1010.6
20260510041744 49 92 0.0 0.0 0.00 0.10 0.00 93 1010.6
20260510041238 49 92 0.0 0.0 0.00 0.10 0.00 92 1010.6
20260510040731 49 92 0.0 0.0 0.00 0.10 0.00 92 1010.6
20260510040226 49 92 0.0 0.0 0.00 0.10 0.00 92 1010.6
20260510035720 49 92 0.0 0.0 0.00 0.10 0.10 92 1010.6
20260510035214 49 92 0.0 0.0 0.00 0.10 0.10 92 1010.7
20260510034935 50 92 0.0 0.0 0.00 0.10 0.10 92 1010.7
20260510034202 50 92 0.0 0.0 0.00 0.10 0.10 92 1010.6
20260510033659 50 92 0.0 0.0 0.00 0.10 0.10 92 1010.6
20260510033146 50 92 0.0 0.0 0.00 0.10 0.10 92 1010.7
20260510032640 50 92 0.0 0.0 0.00 0.10 0.10 92 1010.6
20260510032134 50 92 0.0 0.0 0.00 0.10 0.10 92 1010.6
20260510031628 50 92 0.0 0.0 0.00 0.10 0.10 92 1010.6
20260510031122 51 92 0.0 0.0 0.00 0.10 0.10 92 1010.5
20260510030617 51 92 0.0 0.0 0.00 0.10 0.10 92 1010.4
20260510030113 51 92 0.0 0.0 0.00 0.10 0.10 92 1010.5
20260510030055 51 92 0.0 0.0 0.00 0.10 0.10 92 1010.4
20260510025320 51 92 0.0 0.0 0.00 0.10 0.10 92 1010.4
20260510024550 52 92 0.0 0.0 0.00 0.10 0.10 92 1010.2
20260510024043 52 92 0.0 0.0 0.00 0.10 0.10 92 1010.2
20260510023537 52 92 0.0 0.0 0.00 0.10 0.10 91 1010.2
20260510023029 52 92 0.0 1.0 0.00 0.10 0.10 91 1010.1
20260510022525 52 92 0.0 1.0 0.00 0.10 0.10 91 1010.2
20260510022241 53 92 0.0 0.0 0.00 0.10 0.10 91 1010.4
20260510021738 53 92 0.0 0.0 0.00 0.10 0.10 91 1010.3
20260510021019 53 92 0.0 1.0 0.00 0.10 0.10 91 1010.3
20260510020500 53 92 0.0 1.0 0.00 0.10 0.10 91 1010.2
20260510015955 53 92 0.0 1.0 0.00 0.10 0.10 91 1010.2
20260510015455 53 92 0.0 1.0 0.00 0.10 0.10 91 1010.1
20260510015215 54 92 0.0 1.0 0.00 0.10 0.10 91 1010.1
20260510014717 54 92 0.0 1.0 0.00 0.10 0.10 91 1010.0
20260510013954 54 92 0.0 2.0 0.00 0.10 0.10 91 1010.0
20260510013451 54 92 0.0 2.0 0.00 0.10 0.10 91 1009.9
20260510012947 54 92 0.0 2.0 0.00 0.10 0.10 91 1009.9
20260510012450 54 92 0.0 3.0 0.00 0.10 0.10 90 1009.8
20260510011948 54 92 0.0 3.0 0.00 0.10 0.10 90 1009.8
20260510011449 54 92 0.0 1.0 0.00 0.10 0.10 90 1009.7
20260510010949 54 92 0.0 2.0 0.00 0.10 0.10 90 1009.7
20260510010449 55 92 0.0 2.0 0.00 0.10 0.10 90 1009.6
20260510005949 55 92 0.0 1.0 0.00 0.10 0.10 89 1009.6
20260510005448 55 92 0.0 0.0 0.00 0.10 0.10 90 1009.6
20260510004949 55 92 0.0 0.0 0.00 0.10 0.10 89 1009.5
20260510004452 55 92 0.0 1.0 0.00 0.10 0.10 89 1009.5
20260510003944 56 92 0.0 1.0 0.00 0.10 0.10 89 1009.4
20260510003443 56 92 0.0 2.0 0.00 0.10 0.10 88 1009.5
20260510002940 56 92 0.0 2.0 0.00 0.10 0.10 88 1009.4
20260510002439 56 92 0.0 3.0 0.00 0.10 0.10 88 1009.4
20260510001935 57 92 1.0 3.0 0.00 0.10 0.10 88 1009.3
20260510001429 57 93 1.0 3.0 0.00 0.10 0.10 88 1009.2
20260510000924 58 93 1.0 4.0 0.00 0.10 0.10 87 1009.2
20260510000418 58 93 1.0 4.0 0.00 0.10 0.10 87 1009.1
20260509235916 58 92 1.0 4.0 0.00 0.10 0.10 86 1009.1
20260509235415 58 96 1.0 3.0 0.00 0.10 0.10 86 1009.1
20260509235137 59 96 2.0 3.0 0.00 0.10 0.10 86 1009.1
20260509234415 59 96 2.0 6.0 0.00 0.10 0.10 86 1009.2
20260509233915 60 96 3.0 7.0 0.00 0.10 0.10 85 1009.2
20260509233413 60 92 2.0 7.0 0.00 0.10 0.10 85 1009.2
20260509233132 60 104 2.0 7.0 0.00 0.10 0.10 84 1009.2
20260509232414 61 107 1.0 3.0 0.00 0.10 0.10 84 1009.1
20260509231912 61 107 2.0 4.0 0.00 0.10 0.10 83 1009.1
20260509231414 61 107 2.0 4.0 0.00 0.10 0.10 82 1009.1
20260509230910 62 107 2.0 7.0 0.00 0.10 0.10 82 1009.2
20260509230634 62 137 2.0 7.0 0.00 0.10 0.10 81 1009.2
20260509225909 62 135 1.0 3.0 0.00 0.10 0.10 80 1009.2
20260509225413 62 135 1.0 3.0 0.00 0.10 0.10 78 1009.2
20260509225129 62 135 1.0 2.0 0.00 0.10 0.10 78 1009.2
20260509224400 62 135 1.0 4.0 0.00 0.10 0.10 77 1009.1
20260509223857 62 135 2.0 4.0 0.00 0.10 0.10 75 1009.1
20260509223354 63 9 2.0 4.0 0.00 0.10 0.10 75 1009.1
20260509222850 63 9 1.0 3.0 0.00 0.10 0.10 74 1009.1
20260509222350 63 9 1.0 3.0 0.00 0.10 0.10 75 1009.1
20260509221851 64 9 0.0 2.0 0.00 0.10 0.10 76 1009.1
20260509221609 63 9 0.0 2.0 0.00 0.10 0.10 75 1009.2
20260509220850 62 9 0.0 0.0 0.00 0.10 0.10 75 1009.3
20260509220351 62 5 0.0 0.0 0.00 0.10 0.10 76 1009.2
20260509220113 62 5 0.0 0.0 0.00 0.10 0.10 77 1009.3
20260509215350 62 9 0.0 0.0 0.00 0.10 0.10 76 1009.3
20260509214850 62 9 0.0 2.0 0.00 0.10 0.10 76 1009.3
20260509214349 62 5 0.0 2.0 0.00 0.10 0.10 76 1009.3
20260509213846 62 9 0.0 2.0 0.00 0.10 0.10 75 1009.2
20260509213346 62 5 1.0 3.0 0.00 0.10 0.10 75 1009.2
20260509212846 62 9 1.0 3.0 0.00 0.10 0.10 73 1009.2
20260509212612 62 9 2.0 5.0 0.00 0.10 0.10 73 1009.2
20260509211847 63 9 1.0 5.0 0.00 0.10 0.10 75 1009.3
20260509211617 63 342 1.0 4.0 0.00 0.10 0.10 77 1009.2
20260509210847 62 342 1.0 4.0 0.00 0.10 0.10 79 1009.4
20260509210603 61 340 1.0 3.0 0.00 0.10 0.10 79 1009.4
20260509205841 61 340 0.0 3.0 0.00 0.10 0.10 79 1009.4
20260509205343 60 340 0.0 2.0 0.00 0.10 0.10 78 1009.4
20260509204842 61 340 0.0 2.0 0.00 0.10 0.10 79 1009.5
20260509204601 61 340 0.0 2.0 0.00 0.10 0.10 77 1009.4
20260509203842 61 340 1.0 2.0 0.00 0.10 0.10 75 1009.4
20260509203610 60 340 1.0 2.0 0.00 0.10 0.10 75 1009.3
20260509202841 61 340 1.0 3.0 0.00 0.10 0.10 77 1009.4
20260509202601 61 340 1.0 4.0 0.00 0.10 0.10 77 1009.4
20260509202319 61 340 2.0 6.0 0.00 0.10 0.10 79 1009.4
20260509201340 61 341 2.0 6.0 0.00 0.10 0.10 80 1009.5
20260509200832 60 335 2.0 5.0 0.00 0.10 0.10 79 1009.4
20260509200328 60 331 1.0 5.0 0.00 0.10 0.10 80 1009.5
20260509195822 60 5 2.0 4.0 0.00 0.10 0.10 82 1009.5
20260509195316 60 9 1.0 3.0 0.01 0.10 0.10 82 1009.6
20260509194814 59 9 1.0 5.0 0.01 0.10 0.10 82 1009.5
20260509194304 59 9 2.0 5.0 0.01 0.10 0.10 82 1009.5
20260509193759 59 9 2.0 5.0 0.01 0.10 0.10 83 1009.4
20260509193252 59 5 1.0 4.0 0.01 0.10 0.10 85 1009.5
20260509193009 58 5 0.0 3.0 0.01 0.10 0.10 85 1009.7
20260509192238 58 5 0.0 3.0 0.01 0.10 0.10 86 1009.7
20260509191734 58 5 0.0 3.0 0.01 0.10 0.10 86 1009.9
20260509191319 58 5 1.0 4.0 0.01 0.10 0.10 86 1010.1
20260509190721 58 5 1.0 4.0 0.01 0.10 0.10 87 1010.4
20260509190703 57 5 1.0 4.0 0.01 0.10 0.10 86 1010.3
20260509185708 57 331 0.0 3.0 0.01 0.10 0.10 86 1010.5
20260509185204 57 330 1.0 3.0 0.00 0.09 0.09 85 1010.7
20260509184658 57 330 0.0 3.0 0.00 0.09 0.09 84 1010.7
20260509184151 57 330 0.0 3.0 0.00 0.09 0.09 86 1010.8
20260509183647 57 330 1.0 3.0 0.00 0.09 0.09 84 1010.7
20260509183140 57 330 1.0 4.0 0.00 0.09 0.09 84 1010.8
20260509182634 57 330 1.0 4.0 0.00 0.09 0.09 84 1010.8
20260509182128 57 330 2.0 5.0 0.00 0.09 0.09 84 1010.9
20260509182112 57 329 2.0 5.0 0.00 0.09 0.09 84 1011.0
20260509181129 57 325 2.0 5.0 0.00 0.09 0.09 84 1011.1
20260509180610 57 323 2.0 4.0 0.00 0.09 0.09 83 1011.1
20260509180117 57 321 2.0 5.0 0.00 0.09 0.09 84 1011.2
20260509175607 57 348 1.0 5.0 0.00 0.09 0.09 84 1011.2
20260509175104 57 355 1.0 4.0 0.00 0.09 0.09 84 1011.2
20260509174823 57 355 2.0 5.0 0.00 0.09 0.09 83 1011.3
20260509174105 57 355 2.0 6.0 0.00 0.09 0.09 83 1011.1
20260509173604 57 336 2.0 6.0 0.00 0.09 0.09 83 1011.3
20260509173101 58 336 2.0 5.0 0.00 0.09 0.09 83 1011.2
20260509172602 58 227 1.0 3.0 0.00 0.09 0.09 85 1011.2
20260509172101 57 225 0.0 3.0 0.00 0.09 0.09 86 1011.2
20260509171604 57 225 0.0 3.0 0.00 0.09 0.09 85 1011.3
20260509171100 57 225 0.0 2.0 0.00 0.09 0.09 85 1011.3
20260509170558 57 225 1.0 3.0 0.00 0.09 0.09 84 1011.5
20260509165555 58 225 1.0 4.0 0.00 0.09 0.09 84 1011.3
20260509165056 58 219 1.0 3.0 0.01 0.09 0.09 82 1011.3
20260509164559 58 219 1.0 3.0 0.01 0.09 0.09 83 1011.3
20260509164058 59 219 1.0 2.0 0.01 0.09 0.09 83 1011.3
20260509163556 59 219 1.0 2.0 0.01 0.09 0.09 82 1011.3
20260509163328 59 219 1.0 3.0 0.02 0.09 0.09 82 1011.2
20260509162550 59 219 0.0 3.0 0.02 0.09 0.09 83 1011.1
20260509162044 59 219 0.0 3.0 0.03 0.09 0.09 84 1011.0
20260509161800 58 219 0.0 1.0 0.04 0.09 0.09 83 1010.8
20260509161031 58 219 0.0 1.0 0.04 0.09 0.09 83 1010.8
20260509160527 57 219 0.0 1.0 0.05 0.09 0.09 84 1010.9
20260509160020 57 219 0.0 3.0 0.05 0.09 0.09 87 1011.1
20260509155514 57 219 1.0 3.0 0.06 0.09 0.09 89 1011.2
20260509155228 57 218 1.0 3.0 0.05 0.08 0.08 89 1011.2
20260509154502 57 218 1.0 3.0 0.06 0.08 0.08 89 1011.3
20260509153954 57 217 1.0 3.0 0.06 0.08 0.08 89 1011.5
20260509153938 57 217 0.0 3.0 0.05 0.07 0.07 89 1011.8
20260509152943 57 216 1.0 3.0 0.06 0.07 0.07 89 1011.8
20260509152437 57 216 1.0 3.0 0.05 0.06 0.06 88 1011.9
20260509151931 58 215 1.0 3.0 0.06 0.06 0.06 88 1012.1
20260509151428 58 215 0.0 3.0 0.05 0.05 0.05 88 1012.1
20260509150919 58 215 1.0 4.0 0.05 0.05 0.05 87 1012.0
20260509150413 58 215 1.0 4.0 0.04 0.04 0.04 87 1012.1
20260509145907 58 232 1.0 4.0 0.04 0.04 0.04 87 1012.0
20260509145401 58 232 1.0 7.0 0.03 0.03 0.03 86 1011.9
20260509144857 58 215 1.0 7.0 0.03 0.03 0.03 86 1012.0
20260509144351 58 206 2.0 6.0 0.02 0.02 0.02 86 1011.7
20260509143843 58 207 2.0 6.0 0.02 0.02 0.02 85 1011.7
20260509143339 58 188 2.0 5.0 0.02 0.02 0.02 84 1011.7
20260509142831 58 198 2.0 6.0 0.01 0.01 0.01 82 1011.7
20260509142328 59 196 3.0 7.0 0.00 0.00 0.00 81 1011.6
20260509142307 59 236 3.0 7.0 0.00 0.00 0.00 80 1011.5
20260509141332 59 212 3.0 7.0 0.00 0.00 0.00 79 1011.4
20260509141053 60 239 3.0 10.0 0.00 0.00 0.00 78 1011.4
20260509140817 60 187 4.0 10.0 0.00 0.00 0.00 77 1011.4
20260509135826 60 200 3.0 7.0 0.00 0.00 0.00 77 1011.3
20260509135605 60 190 3.0 8.0 0.00 0.00 0.00 77 1011.3
20260509135430 60 216 3.0 8.0 0.00 0.00 0.00 77 1011.3
20260509134559 60 167 4.0 8.0 0.00 0.00 0.00 77 1011.2
20260509133831 60 201 3.0 8.0 0.00 0.00 0.00 76 1011.0
20260509133328 60 182 3.0 7.0 0.00 0.00 0.00 77 1011.0
20260509133306 60 180 3.0 9.0 0.00 0.00 0.00 77 1011.0
20260509132331 60 164 4.0 9.0 0.00 0.00 0.00 76 1011.1
20260509132056 60 228 5.0 9.0 0.00 0.00 0.00 76 1011.1
20260509131328 60 175 5.0 9.0 0.00 0.00 0.00 76 1011.1
20260509130828 60 190 4.0 8.0 0.00 0.00 0.00 76 1011.1
20260509130543 60 211 3.0 6.0 0.00 0.00 0.00 76 1011.1
20260509130036 59 193 3.0 6.0 0.00 0.00 0.00 77 1011.1
20260509125311 59 225 3.0 9.0 0.00 0.00 0.00 78 1011.1
20260509124804 59 145 3.0 9.0 0.00 0.00 0.00 78 1011.1
20260509124253 58 91 2.0 8.0 0.00 0.00 0.00 79 1011.0
20260509124014 58 144 2.0 8.0 0.00 0.00 0.00 79 1010.9
20260509123245 58 150 1.0 5.0 0.00 0.00 0.00 79 1011.0
20260509122748 58 186 0.0 3.0 0.00 0.00 0.00 80 1011.0
20260509122249 58 188 0.0 1.0 0.00 0.00 0.00 81 1011.2
20260509121745 57 188 0.0 1.0 0.00 0.00 0.00 82 1011.2
20260509121244 57 188 0.0 0.0 0.00 0.00 0.00 83 1011.1
20260509120754 56 188 0.0 0.0 0.00 0.00 0.00 84 1011.1
20260509120238 56 188 0.0 0.0 0.00 0.00 0.00 84 1011.1
20260509115741 56 188 0.0 2.0 0.00 0.00 0.00 84 1011.0
20260509115238 56 188 0.0 2.0 0.00 0.00 0.00 84 1011.0
20260509114741 56 188 0.0 1.0 0.00 0.00 0.00 84 1011.2
20260509114237 56 188 0.0 0.0 0.00 0.00 0.00 84 1011.1
20260509114005 55 188 0.0 0.0 0.00 0.00 0.00 84 1011.0
20260509113238 55 188 0.0 0.0 0.00 0.00 0.00 84 1010.9
20260509112736 55 188 0.0 0.0 0.00 0.00 0.00 84 1010.9
20260509112715 55 188 0.0 0.0 0.00 0.00 0.00 84 1010.9
20260509111956 55 188 0.0 0.0 0.00 0.00 0.00 84 1011.0
20260509111235 55 188 0.0 1.0 0.00 0.00 0.00 84 1011.0
20260509110737 55 188 0.0 1.0 0.00 0.00 0.00 84 1011.0
20260509110459 55 188 0.0 2.0 0.00 0.00 0.00 84 1010.9
20260509110004 55 188 0.0 2.0 0.00 0.00 0.00 84 1010.8
20260509105239 54 188 0.0 0.0 0.00 0.00 0.00 85 1010.8
20260509104742 54 188 0.0 0.0 0.00 0.00 0.00 85 1010.8
20260509104242 54 188 0.0 2.0 0.00 0.00 0.00 85 1010.8
20260509103741 54 188 0.0 2.0 0.00 0.00 0.00 85 1010.7
20260509103239 54 188 0.0 1.0 0.00 0.00 0.00 85 1010.9
20260509102740 53 190 0.0 0.0 0.00 0.00 0.00 85 1010.7
20260509102514 54 190 0.0 0.0 0.00 0.00 0.00 85 1010.7
20260509101739 54 190 0.0 0.0 0.00 0.00 0.00 84 1010.7
20260509101235 54 190 0.0 0.0 0.00 0.00 0.00 85 1010.6
20260509100737 54 190 0.0 0.0 0.00 0.00 0.00 84 1010.6
20260509100235 54 190 0.0 2.0 0.00 0.00 0.00 84 1010.6
20260509100009 54 190 0.0 2.0 0.00 0.00 0.00 85 1010.5